This demonstration page uses our WeatherBlox Daily Observations layout. Learn more.

Left ArrowRight Arrow

Hourly Observations for September 30, 2020

Temp ( °F °C ) Dew Point ( °F °C ) Humidity (%) Winds ( mph kmh ) Pressure ( in mb ) Visibility ( mi km ) Precip ( " mm )
12:07 am 00:07 Cloudy with Heavy Rain 68 20 66 18.9 93 93 WNW 26 43 29.70 1006 2 3 0.15 3.81
12:59 am 00:59 Cloudy with Light Rain 62 16.7 59 15 90 90 WNW 13 20 29.70 1006 5 8 0.36 9.14
1:59 am 01:59 Cloudy with Light Rain 62 16.7 59 15 90 90 N 7 11 29.71 1006 5 8 0.03 0.76
2:59 am 02:59 Cloudy with Mist and Fog 62 16.7 59 15 90 90 Calm 29.71 1006 5 8 0.01 0.25
3:59 am 03:59 Cloudy with Mist and Fog 62 16.7 58 14.4 86 86 W 14 22 29.76 1008 5 8 0.01 0.25
4:59 am 04:59 Cloudy 61 16.1 58 14.4 90 90 W 8 13 29.78 1008 10 16 0.00 0.00
5:14 am 05:14 Cloudy 62 16.7 58 14.4 86 86 W 12 19 29.79 1009 10 16 0.00 0.00
5:54 am 05:54 Cloudy 63 17 57 14 83 83 W 9 15 29.81 1009 9 14 0.00 0.00
5:59 am 05:59 Cloudy 62 16.7 59 15 90 90 W 10 17 29.81 1010 8 13 0.00 0.00
6:39 am 06:39 Cloudy 62 16.7 57 13.9 84 84 W 14 22 29.83 1010 10 16 0.00 0.00
6:59 am 06:59 Mostly Cloudy 62 16.7 57 13.9 84 84 WSW 10 17 29.84 1011 10 16 0.00 0.00
7:59 am 07:59 Mostly Cloudy 62 16.7 56 13.3 80 80 W 10 17 29.88 1012 10 16 0.00 0.00
8:23 am 08:23 Mostly Cloudy 62 16.7 56 13.3 80 80 W 10 17 29.89 1012 10 16 0.00 0.00
8:59 am 08:59 Mostly Cloudy 63 17.2 55 12.8 76 76 W 12 19 29.91 1013 10 16 0.00 0.00
9:59 am 09:59 Partly Cloudy 65 18.3 54 12.2 68 68 W 13 20 29.92 1013 10 16 0.00 0.00
10:59 am 10:59 Sunny 66 18.9 52 11.1 61 61 W 12 19 29.93 1014 10 16 0.00 0.00
11:59 am 11:59 Mostly Sunny 68 20 51 10.6 55 55 WSW 9 15 29.92 1013 10 16 0.00 0.00
12:59 pm 12:59 Mostly Sunny 69 20.6 51 10.6 53 53 W 14 22 29.93 1013 10 16 0.00 0.00
1:59 pm 13:59 Mostly Sunny 70 21.1 49 9.4 47 47 WSW 12 19 29.92 1013 10 16 0.00 0.00
2:59 pm 14:59 Mostly Sunny 71 21.7 48 8.9 44 44 W 12 19 29.91 1013 10 16 0.00 0.00
3:59 pm 15:59 Mostly Sunny 71 21.7 48 8.9 44 44 W 10 17 29.91 1013 10 16 0.00 0.00
4:59 pm 16:59 Mostly Sunny 71 21.7 48 8.9 44 44 W 9 15 29.91 1013 10 16 0.00 0.00
5:59 pm 17:59 Mostly Sunny 69 20.6 48 8.9 47 47 WSW 10 17 29.93 1013 10 16 0.00 0.00
6:59 pm 18:59 Mostly Clear 66 18.9 49 9.4 54 54 SW 7 11 29.94 1014 10 16 0.00 0.00
7:59 pm 19:59 Mostly Clear 64 17.8 50 10 60 60 SW 5 7 29.97 1015 10 16 0.00 0.00
8:59 pm 20:59 Clear 61 16.1 52 11.1 72 72 S 6 9 29.98 1015 10 16 0.00 0.00
9:59 pm 21:59 Mostly Clear 60 15.6 52 11.1 75 75 SSW 5 7 29.99 1016 10 16 0.00 0.00
10:59 pm 22:59 Clear 62 16.7 52 11.1 70 70 SSW 6 9 29.98 1015 10 16 0.00 0.00
11:59 pm 23:59 Clear 62 16.7 52 11.1 70 70 SSW 7 11 29.99 1016 10 16 0.00 0.00

Powered by AerisWeather